TimeMST,TemperatureF,Dew PointF,Humidity,Sea Level PressureIn,VisibilityMPH,Wind Direction,Wind SpeedMPH,Gust SpeedMPH,PrecipitationIn,Events,Conditions,WindDirDegrees,DateUTC
12:53 AM,19.9,10.0,65,30.06,10.0,Calm,Calm,-,N/A,,Clear,0,2014-01-27 07:53:00
1:53 AM,19.9,10.9,68,30.05,10.0,Calm,Calm,-,N/A,,Clear,0,2014-01-27 08:53:00
2:53 AM,15.1,9.0,77,30.05,10.0,NNE,5.8,-,N/A,,Clear,30,2014-01-27 09:53:00
3:53 AM,16.0,9.0,74,30.06,10.0,ESE,3.5,-,N/A,,Clear,110,2014-01-27 10:53:00
4:53 AM,16.0,10.0,77,30.06,10.0,ENE,5.8,-,N/A,,Clear,60,2014-01-27 11:53:00
5:53 AM,17.1,10.9,77,30.08,10.0,NE,4.6,-,N/A,,Clear,50,2014-01-27 12:53:00
6:53 AM,15.1,10.0,80,30.13,10.0,ENE,4.6,-,N/A,,Clear,60,2014-01-27 13:53:00
7:53 AM,19.0,12.0,74,30.16,10.0,NE,3.5,-,N/A,,Clear,50,2014-01-27 14:53:00
8:53 AM,26.1,14.0,60,30.17,10.0,East,3.5,-,N/A,,Clear,80,2014-01-27 15:53:00
9:53 AM,32.0,15.1,50,30.12,10.0,ENE,3.5,-,N/A,,Clear,70,2014-01-27 16:53:00
10:53 AM,37.9,14.0,38,30.09,10.0,ESE,3.5,-,N/A,,Clear,110,2014-01-27 17:53:00
11:53 AM,43.0,14.0,31,30.04,10.0,SW,6.9,-,N/A,,Clear,220,2014-01-27 18:53:00
12:53 PM,48.9,10.9,22,29.94,10.0,SW,17.3,25.3,N/A,,Clear,220,2014-01-27 19:53:00
1:53 PM,50.0,10.0,20,29.90,10.0,WSW,19.6,29.9,N/A,,Clear,250,2014-01-27 20:53:00
2:53 PM,51.1,10.9,20,29.90,10.0,WSW,19.6,28.8,N/A,,Clear,250,2014-01-27 21:53:00
3:53 PM,50.0,14.0,24,29.90,10.0,West,20.7,32.2,N/A,,Clear,270,2014-01-27 22:53:00
4:53 PM,46.9,12.9,25,29.92,10.0,West,20.7,27.6,N/A,,Clear,260,2014-01-27 23:53:00
5:53 PM,42.1,15.1,34,29.95,10.0,West,17.3,27.6,N/A,,Clear,260,2014-01-28 00:53:00
6:53 PM,41.0,15.1,35,29.97,10.0,West,24.2,39.1,N/A,,Clear,280,2014-01-28 01:53:00
7:53 PM,39.0,14.0,36,29.97,10.0,West,19.6,29.9,N/A,,Clear,260,2014-01-28 02:53:00
8:53 PM,39.9,10.0,29,29.95,10.0,WNW,26.5,35.7,N/A,,Clear,290,2014-01-28 03:53:00
9:53 PM,39.0,10.9,32,29.93,10.0,West,19.6,28.8,N/A,,Clear,280,2014-01-28 04:53:00
10:53 PM,37.9,12.9,36,29.92,10.0,WNW,18.4,25.3,N/A,,Clear,290,2014-01-28 05:53:00
11:53 PM,37.0,10.0,33,29.91,10.0,WNW,20.7,29.9,N/A,,Clear,290,2014-01-28 06:53:00